Tracking 31027 objects as of 19-Jul-2025
HD Live streaming from Space Station
objects crossing your sky now

DMSP 5D-2 F11 DEB

Track DMSP 5D-2 F11 DEB now!
10-day predictions


NORAD ID: 28330
Int'l Code: 1991-082AT
Perigee: 729.9 km
Apogee: 835.8 km
Inclination: 99.0 °
Period: 100.4 minutes
Semi major axis: 7153 km
RCS: 0.0098 m2 (small)
Launch date: November 28, 1991
Source: United States (US)
Launch site: AIR FORCE WESTERN TEST RANGE (AFWTR)

Note: This is SATELLITE DEBRIS
Your satellite tracking list
FLOCK 3S 1
Track 1 satellite(s)




NASA's NSSDC Master Catalog

Two Line Element Set (TLE):
1 28330U 91082AT  25198.39440888  .00003775  00000-0  13057-2 0  9995
2 28330  98.9543 258.5289 0074017  36.6525 323.9690 14.34808615 92262
Source of the keplerian elements: AFSPC